Hourly Weather Roundup
Issued by NWS Central Illinois

Home | Current Version | Previous Version | Text Only | Print | Product List | Glossary On
Versions: 1 2 3 4 5 6 7 8 9 10 11 12 13 14 15 16 17 18 19 20 21 22 23 24 25 26 27 28 29 30 31 32 33 34 35 36 37 38 39 40 41 42 43 44 45 46 47 48 49 50
004
NZUS43 KILX 221710
HWRILX

AREA WEATHER ROUNDUP
NATIONAL WEATHER SERVICE, LINCOLN IL
1100 AM CST SUN JAN 22 2017


CITY           SKY/WX    TMP DP  RH WIND       PRES   REMARKS
BLOOMINGTON    CLOUDY    43  43 100 N15       29.61F FOG
CHAMPAIGN      CLOUDY    49  44  83 N13       29.56F
DANVILLE       PTSUNNY   49  49  99 N10       29.55F FOG
DECATUR        CLOUDY    47  45  93 NE12      29.56F
EFFINGHAM      CLOUDY    55  53  94 NE5       29.53S
FLORA          CLOUDY    57  52  82 NE9       29.51S
GALESBURG      CLOUDY    40  40 100 N6        29.66S FOG
JACKSONVILLE   CLOUDY    44  42  95 N14G20    29.60R FOG
LACON          CLOUDY    38  38 100 CALM      29.65S FOG
LAWRENCEVILLE  CLOUDY    56  51  84 NE9       29.51F
LITCHFIELD     CLOUDY    45  44  95 N13       29.54S FOG
$$


CITY           SKY/WX    TMP DP  RH WIND       PRES   REMARKS
LINCOLN        MOSUNNY   48  45  91 N13       29.60S
MACOMB         CLOUDY    42  42  98 N12       29.67F
MATTOON        MOSUNNY   53  51  93 NE10      29.53F
MT CARMEL AP   CLOUDY    55  50  82 NE9       29.49F
OLNEY-NOBLE AP CLOUDY    55  54  94 NE9       29.51F
PARIS          PTSUNNY   54  51  92 NE7       29.55F
PEORIA         CLOUDY    44  40  85 NE9       29.64F
PONTIAC        DRIZZLE   41  41 100 N10       29.63F WCI  35
RANTOUL        CLOUDY    46  45  95 N12       29.58F FOG
SPRINGFIELD    CLOUDY    47  43  86 N13       29.59S FOG
TAYLORVILLE    CLOUDY    44  43  97 N16       29.56F FOG
$$

...REGIONAL REPORTS...


CITY           SKY/WX    TMP DP  RH WIND       PRES   REMARKS
CHICAGO O`HARE CLOUDY    44  39  82 E5        29.64S
KANKAKEE       CLOUDY    41  40  97 N7        29.63F FOG
MOLINE         CLOUDY    39  36  89 CALM      29.67S FOG
MOUNT STERLING CLOUDY    44  40  88 N12       29.63S
MOUNT VERNON   CLOUDY    57  51  80 NE9       29.48F
PITTSFIELD     CLOUDY    47  42  85 N12       29.61S
QUINCY         CLOUDY    44  40  85 N15       29.63S
ROCKFORD       CLOUDY    38  36  92 NW5       29.68S FOG     WCI  34
$$


CITY           SKY/WX    TMP DP  RH WIND       PRES   REMARKS
BURLINGTON     CLOUDY    39  38  96 N9        29.67R FOG     WCI  33
CEDAR RAPIDS   CLOUDY    33  33 100 NW8       29.69R FOG     WCI  26
DES MOINES     CLOUDY    36  34  92 NW9       29.73R FOG     WCI  29
KIRKSVILLE     MIX PCPN  37  36  96 N14       29.69R VSB 3/4 WCI  28
OTTUMWA        CLOUDY    36  32  85 N12       29.71S WCI  28
ST LOUIS       CLOUDY    50  44  80 N12       29.53F
$$


CITY           SKY/WX    TMP DP  RH WIND       PRES   REMARKS
TERRE HAUTE    CLOUDY    56  50  80 NE5       29.54F
EVANSVILLE     CLOUDY    58  50  75 NE6       29.47F
INDIANAPOLIS   PTSUNNY   55  50  83 NE5       29.55F
LAFAYETTE      MOSUNNY   53  50  89 N7        29.58F THUNDER
MADISON        CLOUDY    39  37  92 CALM      29.66F FOG
MILWAUKEE      CLOUDY    45  40  82 NW5       29.65F
$$






USA.gov is the U.S. government's official web portal to all federal, state and local government web resources and services.